Location: Grandview
(34.8900°N, 117.1058°W)
Time: 18:12:50
(UTC-07:00)

OTV 5 (USA 277) - Pass Details

Date: 11 October 2017
Orbit: 404 x 417 km, 43.0° (Epoch: 07 September)

Event Time Altitude Azimuth Distance (km) Brightness Sun altitude
Rises 18:57:19 0° 251° (WSW) 2,344 ? -8.8°
Reaches altitude 10° 18:59:27 10° 255° (WSW) 1,484 ? -9.2°
Maximum altitude 19:02:45 57° 335° (NNW) 492 ? -9.9°
Enters shadow 19:05:49 12° 55° (NE) 1,382 ? -10.5°
